User: anonymous   Login
Location: Columbia
(38.9520°N, 92.3340°W)
Time: 03:58:37
(UTC-06:00)
Language:

Meteor 1-4 Rocket - Orbit

View from above orbital plane
View from above orbital plane
View from above satellite
View from above satellite

Ground track
Ground track

The orbit data is extracted from the following two-line orbital elements,

1 04394U 70037B   17350.89024383  .00001245  00000-0  42754-4 0  9998
2 04394  81.2409 160.2636 0039620 218.8959 140.9425 15.28542347592677
Epoch (UTC): 16 December 2017 21:21:57
Eccentricity: 0.0039620
inclination: 81.2409°
perigee height: 453 km
apogee height: 507 km
right ascension of ascending node: 160.2636°
argument of perigee: 218.8959°
revolutions per day: 15.28542347
mean anomaly at epoch: 140.9425°
orbit number at epoch: 59267

The dashed part of the orbit path shows where the satellite is in the earth's shadow,  

DLR